NJE931 KORF-MYGF

Flight info

Callsign NJE931
Flight time 1h 30m
Altitude 37000
Route COUPN BEETN JIMAR CHKLZ EBEAR OZENA ETECK WLKER WOPOP
Aircraft GL6T/M-SGDFIBRWXY/S

Departure

Time 2026-04-30 20:27
Airport Norfolk International Airport (KORF)

Arrival

Time 2026-04-30 21:57
Airport Grand Bahama International Airport (MYGF)
Time Latitude Longitude Altitude Speed Heading
2026-04-30 20:16 36.88555 -76.20243 27 ft 0 kts 308°
2026-04-30 20:18 36.88568 -76.20248 27 ft 7 kts 351°
2026-04-30 20:19 36.88619 -76.20269 28 ft 9 kts 12°
2026-04-30 20:19 36.88636 -76.20261 26 ft 0 kts 25°
2026-04-30 20:19 36.88690 -76.20243 26 ft 11 kts
2026-04-30 20:19 36.88759 -76.20203 27 ft 11 kts 31°
2026-04-30 20:20 36.88828 -76.20196 26 ft 12 kts 298°
2026-04-30 20:20 36.88856 -76.20295 26 ft 13 kts 288°
2026-04-30 20:20 36.88840 -76.20393 27 ft 13 kts 220°
2026-04-30 20:20 36.88769 -76.20463 26 ft 13 kts 218°
2026-04-30 20:21 36.88698 -76.20532 28 ft 12 kts 218°
2026-04-30 20:21 36.88636 -76.20593 30 ft 10 kts 218°
2026-04-30 20:21 36.88585 -76.20643 31 ft 9 kts 218°
2026-04-30 20:21 36.88539 -76.20691 30 ft 8 kts 237°
2026-04-30 20:22 36.88551 -76.20741 30 ft 0 kts 306°
2026-04-30 20:26 36.88643 -76.20775 32 ft 0 kts 38°
2026-04-30 20:26 36.89196 -76.20237 31 ft 114 kts 38°
2026-04-30 20:26 36.89934 -76.19516 170 ft 146 kts 38°
2026-04-30 20:27 36.91720 -76.17280 1174 ft 213 kts 55°
2026-04-30 20:27 36.92926 -76.13835 3256 ft 235 kts 72°
2026-04-30 20:28 36.93200 -76.09555 5239 ft 259 kts 108°
2026-04-30 20:28 36.91540 -76.05696 7471 ft 266 kts 134°
2026-04-30 20:29 36.88327 -76.03163 9655 ft 241 kts 176°
2026-04-30 20:30 36.85117 -76.05968 11716 ft 248 kts 251°
2026-04-30 20:30 36.82696 -76.13086 13102 ft 337 kts 248°
2026-04-30 20:31 36.79521 -76.22132 14923 ft 423 kts 248°
2026-04-30 20:32 36.75887 -76.32611 16709 ft 445 kts 248°
2026-04-30 20:32 36.73402 -76.39780 17915 ft 451 kts 248°
2026-04-30 20:33 36.72163 -76.43358 18478 ft 454 kts 248°
2026-04-30 20:33 36.69641 -76.50640 19580 ft 460 kts 248°
2026-04-30 20:33 36.68384 -76.54272 20127 ft 463 kts 249°
2026-04-30 20:34 36.65816 -76.61701 21288 ft 470 kts 249°
2026-04-30 20:34 36.63206 -76.69259 22495 ft 477 kts 249°
2026-04-30 20:35 36.61906 -76.73028 23104 ft 481 kts 249°
2026-04-30 20:35 36.60581 -76.76872 23679 ft 482 kts 249°
2026-04-30 20:35 36.57948 -76.84501 24734 ft 477 kts 249°
2026-04-30 20:36 36.56642 -76.88277 25275 ft 474 kts 249°
2026-04-30 20:36 36.55343 -76.92034 25826 ft 471 kts 249°
2026-04-30 20:36 36.52780 -76.99435 26952 ft 466 kts 250°
2026-04-30 20:37 36.51484 -77.03170 27543 ft 463 kts 250°
2026-04-30 20:37 36.50228 -77.06783 28139 ft 460 kts 250°
2026-04-30 20:37 36.48961 -77.10429 28757 ft 457 kts 250°
2026-04-30 20:37 36.47698 -77.14054 29377 ft 454 kts 250°
2026-04-30 20:38 36.46457 -77.17610 29990 ft 451 kts 250°
2026-04-30 20:38 36.45209 -77.21182 30538 ft 448 kts 251°
2026-04-30 20:38 36.43966 -77.24737 31087 ft 445 kts 251°
2026-04-30 20:39 36.41526 -77.31699 32205 ft 439 kts 251°
2026-04-30 20:39 36.40307 -77.35167 32785 ft 436 kts 252°
2026-04-30 20:39 36.39097 -77.38602 33376 ft 433 kts 252°
2026-04-30 20:40 36.36693 -77.45412 34495 ft 429 kts 252°
2026-04-30 20:40 36.35487 -77.48827 35033 ft 429 kts 252°
2026-04-30 20:40 36.34300 -77.52185 35574 ft 428 kts 252°
2026-04-30 20:41 36.31914 -77.58925 36698 ft 427 kts 251°
2026-04-30 20:41 36.30715 -77.62312 37009 ft 429 kts 251°
2026-04-30 20:41 36.28318 -77.69084 37016 ft 428 kts 251°
2026-04-30 20:42 36.25934 -77.75813 37005 ft 428 kts 252°
2026-04-30 20:43 36.22328 -77.85936 37006 ft 428 kts 250°
2026-04-30 20:43 36.18789 -77.91975 37011 ft 448 kts 233°
2026-04-30 20:44 36.13517 -77.96460 37017 ft 474 kts 216°
2026-04-30 20:44 36.10378 -77.97929 37019 ft 489 kts 207°
2026-04-30 20:44 36.03448 -77.99069 37014 ft 519 kts 190°
2026-04-30 20:45 35.96169 -77.97653 37014 ft 548 kts 173°
2026-04-30 20:45 35.88899 -77.94443 37025 ft 554 kts 170°
2026-04-30 20:46 35.77964 -77.90618 37015 ft 535 kts 182°
2026-04-30 20:46 35.74302 -77.90231 37019 ft 520 kts 191°
2026-04-30 20:47 35.68355 -77.90599 37025 ft 509 kts 197°
2026-04-30 20:47 35.63649 -77.91088 37023 ft 512 kts 195°
2026-04-30 20:48 35.57633 -77.91075 37024 ft 524 kts 189°
2026-04-30 20:48 35.52811 -77.90892 37025 ft 519 kts 192°
2026-04-30 20:48 35.46818 -77.91115 37028 ft 517 kts 193°
2026-04-30 20:49 35.39553 -77.91048 37016 ft 522 kts 191°
2026-04-30 20:50 35.28701 -77.91184 37016 ft 522 kts 192°
2026-04-30 20:50 35.21413 -77.91156 37017 ft 521 kts 192°
2026-04-30 20:51 35.14200 -77.91243 37019 ft 522 kts 192°
2026-04-30 20:51 35.03283 -77.91280 37021 ft 522 kts 192°
2026-04-30 20:52 34.95987 -77.91319 37018 ft 524 kts 192°
2026-04-30 20:53 34.85115 -77.91379 37021 ft 524 kts 192°
2026-04-30 20:53 34.77795 -77.91411 37020 ft 525 kts 192°
2026-04-30 20:54 34.66861 -77.91471 37017 ft 526 kts 192°
2026-04-30 20:55 34.55831 -77.91529 37016 ft 527 kts 192°
2026-04-30 20:55 34.48526 -77.91565 37010 ft 528 kts 192°
2026-04-30 20:56 34.37466 -77.91623 37010 ft 529 kts 192°
2026-04-30 20:57 34.26602 -77.92419 37008 ft 522 kts 196°
2026-04-30 20:57 34.19336 -77.93062 37008 ft 521 kts 196°
2026-04-30 20:58 34.08491 -77.94090 37005 ft 523 kts 195°
2026-04-30 20:58 34.01260 -77.94775 37009 ft 523 kts 196°
2026-04-30 20:59 33.90345 -77.95785 37008 ft 523 kts 195°
2026-04-30 21:00 33.75820 -77.97139 37005 ft 524 kts 195°
2026-04-30 21:01 33.64879 -77.98155 37000 ft 525 kts 195°
2026-04-30 21:02 33.53978 -77.99164 37001 ft 525 kts 195°
2026-04-30 21:02 33.46724 -77.99833 37002 ft 526 kts 195°
2026-04-30 21:03 33.39412 -78.00507 37000 ft 526 kts 195°
2026-04-30 21:03 33.32114 -78.01178 36993 ft 527 kts 195°
2026-04-30 21:04 33.24804 -78.01850 36996 ft 528 kts 195°
2026-04-30 21:04 33.13758 -78.02862 36990 ft 530 kts 194°
2026-04-30 21:05 33.06436 -78.03532 36989 ft 531 kts 194°
2026-04-30 21:05 32.99052 -78.04206 36988 ft 532 kts 194°
2026-04-30 21:06 32.91665 -78.04880 36983 ft 533 kts 194°
2026-04-30 21:06 32.84295 -78.05549 36978 ft 534 kts 194°
2026-04-30 21:07 32.76866 -78.06225 36975 ft 534 kts 194°
2026-04-30 21:07 32.69464 -78.06896 36976 ft 533 kts 194°
2026-04-30 21:08 32.62052 -78.07567 36977 ft 533 kts 193°
2026-04-30 21:08 32.54695 -78.08232 36983 ft 533 kts 193°
2026-04-30 21:09 32.47306 -78.08898 36984 ft 531 kts 193°
2026-04-30 21:09 32.39941 -78.09561 36979 ft 529 kts 193°
2026-04-30 21:10 32.32600 -78.10222 36976 ft 527 kts 193°
2026-04-30 21:10 32.25350 -78.10911 36978 ft 522 kts 195°
2026-04-30 21:11 32.18139 -78.11893 36980 ft 520 kts 195°
2026-04-30 21:11 32.10941 -78.12827 36981 ft 519 kts 195°
2026-04-30 21:12 32.03768 -78.13790 36977 ft 518 kts 195°
2026-04-30 21:12 31.96607 -78.14730 36981 ft 517 kts 195°
2026-04-30 21:13 31.89500 -78.15672 36990 ft 516 kts 195°
2026-04-30 21:13 31.82351 -78.16613 36983 ft 516 kts 195°
2026-04-30 21:14 31.75213 -78.17553 36989 ft 516 kts 195°
2026-04-30 21:14 31.68067 -78.18492 36988 ft 516 kts 195°
2026-04-30 21:15 31.60978 -78.19422 36988 ft 515 kts 195°
2026-04-30 21:15 31.53852 -78.20356 36990 ft 516 kts 195°
2026-04-30 21:16 31.46707 -78.21291 36991 ft 516 kts 195°
2026-04-30 21:16 31.39550 -78.22226 36993 ft 516 kts 195°
2026-04-30 21:17 31.32410 -78.23157 36995 ft 517 kts 195°
2026-04-30 21:17 31.25292 -78.24084 36998 ft 517 kts 195°
2026-04-30 21:18 31.18131 -78.25015 37000 ft 517 kts 195°
2026-04-30 21:18 31.11006 -78.25940 36997 ft 517 kts 195°
2026-04-30 21:19 31.03828 -78.26870 37000 ft 518 kts 195°
2026-04-30 21:19 30.96654 -78.27799 37000 ft 518 kts 195°
2026-04-30 21:20 30.89521 -78.28721 37002 ft 519 kts 195°
2026-04-30 21:20 30.82345 -78.29647 37004 ft 519 kts 195°
2026-04-30 21:21 30.75147 -78.30574 37007 ft 519 kts 194°
2026-04-30 21:22 30.64394 -78.31957 37004 ft 520 kts 194°
2026-04-30 21:23 30.49967 -78.33808 37009 ft 521 kts 194°
2026-04-30 21:23 30.39181 -78.35243 37016 ft 521 kts 195°
2026-04-30 21:24 30.31981 -78.36337 37013 ft 522 kts 195°
2026-04-30 21:24 30.24767 -78.37405 37018 ft 522 kts 195°
2026-04-30 21:25 30.13997 -78.39019 37020 ft 523 kts 195°
2026-04-30 21:26 30.03142 -78.40641 37026 ft 524 kts 195°
2026-04-30 21:27 29.92275 -78.42258 37027 ft 525 kts 195°
2026-04-30 21:27 29.85064 -78.43328 37020 ft 525 kts 195°
2026-04-30 21:28 29.74155 -78.44946 37028 ft 526 kts 194°
2026-04-30 21:29 29.63290 -78.46554 37028 ft 527 kts 194°
2026-04-30 21:30 29.44968 -78.48590 37033 ft 538 kts 184°
2026-04-30 21:31 29.26320 -78.47833 37029 ft 538 kts 184°
2026-04-30 21:32 29.15111 -78.47399 37032 ft 538 kts 184°
2026-04-30 21:32 29.07610 -78.47098 37035 ft 538 kts 184°
2026-04-30 21:33 28.96419 -78.46655 37037 ft 538 kts 184°
2026-04-30 21:34 28.88944 -78.46363 37041 ft 538 kts 184°
2026-04-30 21:34 28.77693 -78.45918 37044 ft 538 kts 183°
2026-04-30 21:35 28.70223 -78.45625 37043 ft 538 kts 183°
2026-04-30 21:35 28.62769 -78.45332 37046 ft 538 kts 183°
2026-04-30 21:36 28.56533 -78.45088 37044 ft 538 kts 183°
2026-04-30 21:37 28.41570 -78.44502 37047 ft 539 kts 183°
2026-04-30 21:37 28.34053 -78.44208 37053 ft 539 kts 183°
2026-04-30 21:38 28.26542 -78.43915 37051 ft 539 kts 183°
2026-04-30 21:38 28.19059 -78.43623 37049 ft 540 kts 183°
2026-04-30 21:39 28.11529 -78.43331 37051 ft 540 kts 183°
2026-04-30 21:39 28.04014 -78.43039 37048 ft 541 kts 183°
2026-04-30 21:40 27.96522 -78.42748 37048 ft 541 kts 182°
2026-04-30 21:40 27.88991 -78.42456 37052 ft 541 kts 182°
2026-04-30 21:41 27.85224 -78.42311 36903 ft 542 kts 182°
2026-04-30 21:41 27.81445 -78.42165 36228 ft 542 kts 182°
2026-04-30 21:41 27.77683 -78.42019 35420 ft 542 kts 182°
2026-04-30 21:41 27.73902 -78.41873 34640 ft 542 kts 182°
2026-04-30 21:42 27.70188 -78.41729 33830 ft 535 kts 183°
2026-04-30 21:42 27.66570 -78.41578 32966 ft 502 kts 183°
2026-04-30 21:42 27.63173 -78.41442 32105 ft 473 kts 183°
2026-04-30 21:42 27.59964 -78.41327 31405 ft 446 kts 184°
2026-04-30 21:43 27.56974 -78.41215 30781 ft 426 kts 184°
2026-04-30 21:43 27.54077 -78.41101 30174 ft 407 kts 184°
2026-04-30 21:43 27.51296 -78.40995 29493 ft 392 kts 184°
2026-04-30 21:43 27.48617 -78.40894 28812 ft 378 kts 184°
2026-04-30 21:44 27.46024 -78.40795 28139 ft 366 kts 184°
2026-04-30 21:44 27.43504 -78.40698 27485 ft 356 kts 185°
2026-04-30 21:44 27.41088 -78.40606 26859 ft 347 kts 185°
2026-04-30 21:44 27.38703 -78.40515 26244 ft 339 kts 185°
2026-04-30 21:45 27.36363 -78.40426 25643 ft 332 kts 185°
2026-04-30 21:45 27.34065 -78.40338 25056 ft 326 kts 185°
2026-04-30 21:45 27.31810 -78.40253 24481 ft 321 kts 184°
2026-04-30 21:45 27.29616 -78.40169 23929 ft 317 kts 184°
2026-04-30 21:46 27.27421 -78.40085 23351 ft 313 kts 184°
2026-04-30 21:46 27.25280 -78.40203 22679 ft 302 kts 197°
2026-04-30 21:46 27.23282 -78.40805 22045 ft 292 kts 207°
2026-04-30 21:46 27.21431 -78.41626 21448 ft 288 kts 207°
2026-04-30 21:47 27.19548 -78.42421 20839 ft 287 kts 206°
2026-04-30 21:47 27.17677 -78.43208 20247 ft 285 kts 207°
2026-04-30 21:47 27.15823 -78.44019 19397 ft 291 kts 207°
2026-04-30 21:47 27.13878 -78.44873 18065 ft 315 kts 206°
2026-04-30 21:48 27.11764 -78.45771 16607 ft 331 kts 205°
2026-04-30 21:48 27.09564 -78.46704 15202 ft 342 kts 206°
2026-04-30 21:48 27.07317 -78.47674 13848 ft 348 kts 206°
2026-04-30 21:48 27.05056 -78.48645 12389 ft 352 kts 205°
2026-04-30 21:49 27.02761 -78.49625 11193 ft 349 kts 204°
2026-04-30 21:49 27.00601 -78.50541 11084 ft 315 kts 204°
2026-04-30 21:49 26.98608 -78.51394 10647 ft 300 kts 205°
2026-04-30 21:49 26.96534 -78.52306 10193 ft 350 kts 205°
2026-04-30 21:50 26.94030 -78.53394 9801 ft 420 kts 203°
2026-04-30 21:50 26.91256 -78.54551 9378 ft 419 kts 202°
2026-04-30 21:50 26.88579 -78.55671 8897 ft 410 kts 203°
2026-04-30 21:50 26.85933 -78.56831 8409 ft 400 kts 204°
2026-04-30 21:51 26.83375 -78.57942 7913 ft 388 kts 203°
2026-04-30 21:51 26.80904 -78.58965 7430 ft 377 kts 202°
2026-04-30 21:51 26.78475 -78.59992 6943 ft 367 kts 203°
2026-04-30 21:51 26.76125 -78.61024 6473 ft 358 kts 204°
2026-04-30 21:52 26.73815 -78.62011 5977 ft 351 kts 202°
2026-04-30 21:52 26.71552 -78.62954 5479 ft 343 kts 202°
2026-04-30 21:52 26.69378 -78.63882 5054 ft 321 kts 202°
2026-04-30 21:52 26.67368 -78.64731 4575 ft 308 kts 202°
2026-04-30 21:53 26.65403 -78.65553 4088 ft 294 kts 202°
2026-04-30 21:53 26.63528 -78.66340 3583 ft 281 kts 201°
2026-04-30 21:53 26.61754 -78.67089 3407 ft 258 kts 202°
2026-04-30 21:53 26.60116 -78.67749 3063 ft 246 kts 199°
2026-04-30 21:54 26.58475 -78.68240 2450 ft 247 kts 189°
2026-04-30 21:54 26.56755 -78.68195 1960 ft 243 kts 177°
2026-04-30 21:54 26.55201 -78.67986 1846 ft 207 kts 168°
2026-04-30 21:54 26.53963 -78.67422 1700 ft 185 kts 149°
2026-04-30 21:55 26.53174 -78.66357 1502 ft 179 kts 118°
2026-04-30 21:55 26.53020 -78.65044 1440 ft 169 kts 78°
2026-04-30 21:55 26.53662 -78.64047 1233 ft 161 kts 30°
2026-04-30 21:55 26.54774 -78.63871 1012 ft 172 kts 345°
2026-04-30 21:56 26.55868 -78.64421 845 ft 172 kts 321°
2026-04-30 21:56 26.56534 -78.65411 658 ft 151 kts 285°
2026-04-30 21:56 26.56762 -78.66513 465 ft 136 kts 262°
2026-04-30 21:56 26.56691 -78.67565 254 ft 135 kts 245°
2026-04-30 21:57 26.56402 -78.68485 40 ft 119 kts 234°
2026-04-30 21:57 26.56047 -78.69208 15 ft 88 kts 240°
2026-04-30 21:57 26.55773 -78.69469 14 ft 43 kts 214°
2026-04-30 21:57 26.55555 -78.69675 14 ft 39 kts 221°
2026-04-30 21:58 26.55351 -78.69876 14 ft 43 kts 221°
2026-04-30 21:58 26.55123 -78.70097 15 ft 43 kts 221°
2026-04-30 21:58 26.54911 -78.70288 14 ft 34 kts 198°
2026-04-30 21:58 26.54785 -78.70318 17 ft 0 kts 187°